M0SDM Weather Reports


Display with metric or nautical units.
time (UTC)temp
F
wind
direction
speed
MPH
gust
MPH
rain 1hr
in
rain 24hr
in
rain mn
in
humidity
%
barometer
mb
20260506061021 40 111 0.0 4.0 0.00 0.00 0.00 93 1014.3
20260506051021 39 99 0.0 2.0 0.00 0.00 0.00 94 1013.9
20260506044021 39 225 0.0 2.0 0.00 0.00 0.00 94 1013.8
20260506042521 40 155 0.0 2.0 0.00 0.00 0.00 94 1013.9
20260506041021 40 97 1.0 2.0 0.00 0.00 0.00 93 1014.2
20260506035521 41 0 0.0 0.0 0.00 0.00 0.00 93 1014.2
20260506034021 41 157 0.0 2.0 0.00 0.00 0.00 92 1013.9
20260506032521 42 67 0.0 2.0 0.00 0.00 0.00 91 1013.9
20260506031021 43 360 0.0 2.0 0.00 0.00 0.00 91 1013.9
20260506025521 43 293 0.0 2.0 0.00 0.00 0.00 90 1013.8
20260506024022 43 123 0.0 2.0 0.00 0.00 0.00 90 1014.1
20260506022521 43 94 0.0 2.0 0.00 0.00 0.00 90 1014.1
20260506021021 43 119 1.0 4.0 0.00 0.00 0.00 89 1014.1
20260506015521 43 292 0.0 2.0 0.00 0.00 0.00 89 1014.1
20260506014021 44 271 0.0 2.0 0.00 0.00 0.00 88 1014.3
20260506012521 44 305 0.0 2.0 0.00 0.00 0.00 88 1014.2
20260506011021 44 82 0.0 4.0 0.00 0.00 0.00 86 1014.1
20260506005521 44 50 0.0 4.0 0.00 0.00 0.00 86 1014.2
20260506004021 44 320 0.0 4.0 0.00 0.00 0.00 84 1014.2
20260506002521 45 313 0.0 2.0 0.00 0.00 0.00 84 1014.2
20260506001021 45 270 0.0 4.0 0.00 0.00 0.00 83 1014.2
20260505235521 45 288 0.0 2.0 0.00 0.00 0.00 82 1014.1
20260505234021 46 314 0.0 2.0 0.00 0.00 0.00 81 1014.2
20260505232521 46 288 0.0 2.0 0.00 0.00 0.00 80 1014.4
20260505231021 46 329 0.0 4.0 0.00 0.00 0.00 80 1014.4
20260505225521 46 27 0.0 2.0 0.00 0.00 0.00 80 1014.3
20260505224021 46 58 1.0 4.0 0.00 0.00 0.00 79 1014.2
20260505222521 47 324 0.0 4.0 0.00 0.00 0.00 80 1014.1
20260505221021 47 15 0.0 2.0 0.00 0.00 0.00 80 1014.5
20260505215521 47 310 0.0 4.0 0.00 0.00 0.00 79 1014.2
20260505214021 47 284 1.0 4.0 0.00 0.00 0.00 80 1013.9
20260505212521 48 259 1.0 4.0 0.00 0.00 0.00 83 1013.8
20260505211021 48 283 1.0 2.0 0.00 0.00 0.00 83 1013.8
20260505205521 48 249 1.0 4.0 0.00 0.00 0.00 82 1014.0
20260505204021 48 267 2.0 4.0 0.00 0.00 0.00 80 1013.6
20260505202521 49 242 0.0 2.0 0.00 0.00 0.00 79 1013.5
20260505201021 49 255 1.0 2.0 0.00 0.00 0.00 78 1013.2
20260505195521 49 184 0.0 2.0 0.00 0.00 0.00 77 1013.2
20260505194021 50 328 1.0 8.0 0.00 0.00 0.00 80 1013.2
20260505192521 50 251 1.0 4.0 0.00 0.00 0.00 81 1012.8
20260505191021 51 163 2.0 4.0 0.00 0.00 0.00 80 1012.7
20260505185521 51 290 2.0 4.0 0.00 0.00 0.00 80 1012.6
20260505184021 52 166 0.0 7.0 0.00 0.00 0.00 78 1012.0
20260505182521 52 274 0.0 2.0 0.00 0.00 0.00 78 1011.9
20260505181021 52 292 0.0 6.0 0.00 0.00 0.00 76 1011.8
20260505175521 53 309 1.0 4.0 0.00 0.00 0.00 76 1011.7
20260505174021 54 327 1.0 4.0 0.00 0.00 0.00 76 1011.3
20260505172521 54 272 2.0 6.0 0.00 0.00 0.00 75 1011.3
20260505171021 56 208 1.0 4.0 0.00 0.00 0.00 70 1011.0
20260505165521 57 349 2.0 4.0 0.00 0.00 0.00 66 1011.0
20260505164021 58 66 1.0 4.0 0.00 0.00 0.00 57 1010.9
20260505162521 58 14 1.0 4.0 0.00 0.00 0.00 56 1010.8
20260505161021 58 44 1.0 2.0 0.00 0.00 0.00 57 1010.6
20260505152521 60 101 0.0 4.0 0.00 0.00 0.00 55 1010.6
20260505151021 60 69 0.0 4.0 0.00 0.00 0.00 55 1011.0
20260505124021 59 128 1.0 4.0 0.00 0.00 0.00 59 1010.9
20260505122521 59 118 1.0 4.0 0.00 0.00 0.00 59 1010.9
20260505121021 60 141 0.0 2.0 0.00 0.00 0.00 57 1010.9
20260505115521 60 121 0.0 2.0 0.00 0.00 0.00 57 1010.9
20260505114021 60 202 1.0 4.0 0.00 0.00 0.00 59 1011.2
20260505112521 61 187 0.0 2.0 0.00 0.00 0.00 56 1011.5
20260505111021 60 15 1.0 6.0 0.00 0.00 0.00 60 1011.7
20260505101021 58 49 0.0 4.0 0.00 0.00 0.00 67 1012.5
20260505095521 58 121 0.0 6.0 0.00 0.00 0.00 68 1012.5
20260505094021 57 136 2.0 2.0 0.00 0.00 0.00 69 1012.7
20260505092521 58 168 1.0 2.0 0.00 0.00 0.00 71 1012.9
20260505091021 56 129 1.0 2.0 0.00 0.00 0.00 73 1013.1
20260505085521 55 158 1.0 2.0 0.00 0.00 0.00 74 1013.4
20260505084021 53 8 0.0 2.0 0.00 0.00 0.00 81 1013.4
20260505082521 51 314 0.0 4.0 0.00 0.00 0.00 84 1013.3
20260505081021 50 65 0.0 4.0 0.00 0.00 0.00 86 1013.5
20260505075521 50 95 0.0 2.0 0.00 0.00 0.00 85 1013.4
20260505074021 49 120 0.0 2.0 0.00 0.00 0.00 88 1013.5
20260505072521 49 139 0.0 2.0 0.00 0.00 0.00 89 1013.7
20260505071021 48 165 0.0 2.0 0.00 0.00 0.00 95 1013.9